Weather in Vorsino

Russia / Kaluga Oblast     55°13′30″N   36°38′38″E
temp.,
°C
wind,
m/s
gust,
m/s
humid.,
%
clouds,
%
prec.,
mm/h
press.,
hPa
HPBL,
m
4 august, wed
wed400:00+16wsw2471100 0.0 1013110
03:00+13w238835 0.0 101459
06:00+15w2379100 0.0 1014107
09:00+18nw236998 0.0 1015408
12:00+22wnw244290 0.0 10162264
15:00+21w234998 0.0 1016863
18:00+19w1263100 0.0 101656
21:00+15wnw117895 0.4 101711
5 august, thu
thu500:00+13s228627 0.1 101711
03:00+13ssw119135 0.4 101710
06:00+13s2291100 0.1 101731
09:00+17sse2379100 0.1 1017224
12:00+22ssw4650100 0.6 10161768
15:00+18s2772100 0.7 1016448
18:00+18se3873100 0.0 1014407
21:00+15se2791100 0.1 1014165
6 august, fri
fri600:00+14se2897100 1.6 1013220
03:00+15sse1199100 3.8 101229
06:00+15se2699100 1.5 1011222
09:00+16ese2392100 3.6 1011246
12:00+16ene3498100 1.7 1011145
15:00+23ese2567100 1.9 1009694
18:00+21ne3678100 0.1 1008137
21:00+18ene4985100 0.1 1009203
7 august, sat
sat700:00+16ene4987100 0.0 1010220
03:00+14ene259456 0.1 1009117
06:00+16e269492 0.0 1009146
09:00+22se3576100 0.0 1009326
12:00+28ssw565099 0.0 10091223
15:00+26sse2459100 0.1 1009554
18:00+25sse3965100 0.0 1009693
21:00+20sse358429 0.0 101079
8 august, sun
sun800:00+18sse229282 0.6 101129
03:00+16se1190100 0.7 101111
06:00+16ssw229397 0.7 101141
09:00+21wsw248498 0.7 1011439
12:00+22w438196 0.4 1013679
15:00+22wsw2475100 0.6 1014736
18:00+24wsw2359100 0.0 1014449
21:00+17nw37840 0.0 1015144